Regional Weather Roundup
Issued by NWS

Home | Current Version | Previous Version | Graphics & Text | Print | Product List | Glossary On
Versions: 1 2 3 4 5 6 7 8 9 10 11 12 13 14 15 16 17 18 19 20 21 22 23 24 25 26 27 28 29 30 31 32 33 34 35 36 37 38 39 40 41 42 43 44 45 46 47 48 49 50
000
ASUS43 KDTX 250201
RWRMI
MICHIGAN HOURLY REGIONAL WEATHER ROUNDUP
NATIONAL WEATHER SERVICE DETROIT/PONTIAC MI
1000 PM EDT FRI MAR 24 2017

NOTE: "FAIR" INDICATES FEW OR NO CLOUDS BELOW 12,000 FEET WITH NO
SIGNIFICANT WEATHER AND/OR OBSTRUCTION TO VISIBILITY.

MIZ047>049-052>055-059>063-066>070-074>076-081>083-250300-
SOUTHEAST LOWER MICHIGAN

CITY           SKY/WX    TMP DP  RH WIND       PRES   REMARKS
ADRIAN         CLOUDY    64  53  67 SW10      30.02R
ALMA           CLOUDY    40  38  91 E13       30.10R WCI  33
ANN ARBOR      CLOUDY    67  55  65 SW13      30.00R
BAD AXE        CLOUDY    37  34  92 E6        30.11S WCI  32
CARO           CLOUDY    38  35  90 NE7       30.09F WCI  32
DETROIT CITY   CLOUDY    49  40  71 N14       30.07R
DETROIT        CLOUDY    70  54  56 SW18      30.01R
FLINT          CLOUDY    45  37  73 NE18      30.07R
GROSSE ILE     CLOUDY    68  54  59 SW13G20   30.00R
HILLSDALE      CLOUDY    64  52  63 SW12G20   30.01S
HOWELL         LGT RAIN  46  40  80 N8G17     30.04R

CITY           SKY/WX    TMP DP  RH WIND       PRES   REMARKS
JACKSON        CLOUDY    67  54  63 SW14      29.99R
LAMBERTVILLE   MOCLDY    70  54  56 SW10G16   30.02R
LANSING        CLOUDY    45  37  73 NE13      30.07R
LAPEER         MOCLDY    42  36  78 E7        30.10R
MASON          LGT RAIN  47  42  82 NE18      30.05R
MONROE         CLOUDY    67  56  66 SW14      30.00R
MT. CLEMENS    TSTM      43  41  93 N14       30.06R
PONTIAC        LGT RAIN  45  40  82 NE15      30.04R
PORT HOPE        N/A     35  34  96 NE6       30.09F WCI  30
PORT HURON     RAIN      39  34  81 N6        30.09R WCI  35
TRI CITIES     PTCLDY    38  35  89 NE14      30.10R WCI  30
MIDLAND        CLOUDY    39  35  85 NE9       30.11R WCI  32
TROY           MIX PCPN  45  41  86 NE12G18   30.09R
SAGINAW HB     CLOUDY    36  32  87 NE8       30.10S WCI  29
$$
MIZ043>046-050>051-056>058-064>065-071>073-077>080-250300-
SOUTHWEST LOWER MICHIGAN

CITY           SKY/WX    TMP DP  RH WIND       PRES   REMARKS
BATTLE CREEK   CLOUDY    64  50  60 N5        30.01R
BENTON HARBOR  LGT RAIN  45  41  86 W5        30.02R FOG
BIG RAPIDS     CLOUDY    41  35  80 NE7       30.05S
COLDWATER      CLOUDY    66  52  59 SW12G21   30.01R
FREMONT        FAIR      46  37  68 NE14      30.03R
HOLLAND        CLOUDY    55  46  71 E5        30.01R
GRAND RAPIDS   CLOUDY    55  43  63 E20       30.02R
IONIA          CLOUDY    46  38  75 NE16      30.05R
KALAMAZOO      CLOUDY    65  45  48 NW9       30.01R
LUDINGTON      CLOUDY    37  37  98 N10       30.07R WCI  30
MARSHALL       CLOUDY    68  55  62 SW9G16    29.99R
MOUNT PLEASANT MOCLDY    45  38  76 NE6       30.07R
MUSKEGON       CLOUDY    50  39  66 NE9       30.03R
SOUTH HAVEN    CLOUDY    45  40  82 CALM      30.01S
$$
MIZ016>042-250300-
NORTHERN LOWER MICHIGAN

CITY           SKY/WX    TMP DP  RH WIND       PRES   REMARKS
ALPENA         LGT RAIN  34  34 100 N8        30.15R WCI  27
BEAVER ISLAND  CLOUDY    34  33  99 NE5       30.18R WCI  30
BELLAIRE       CLOUDY    35  32  91 N8        30.14R WCI  28
CADILLAC       MIX PCPN  35  34  96 NE7       30.08R WCI  29
CHARLEVOIX     CLOUDY    34  34 100 N3        30.18R
FRANKFORT      LGT RAIN  35  32  90 N5        30.13R WCI  31
GAYLORD        CLOUDY    34  30  85 NE7       30.10S WCI  28
GRAYLING       LGT RAIN  34  32  93 NE7       30.11R WCI  28
HARBOR SPRINGS CLOUDY    34  33  97 NE6       30.16R FOG     WCI  29
HOUGHTON LAKE  RAIN      36  34  92 E10       30.08R FOG     WCI  28
MANISTEE       RAIN      37  35  92 N6        30.11R WCI  32
OSCODA         LGT SNOW  36  34  94 NE14      30.11S WCI  27
PELLSTON       CLOUDY    34  32  92 N8        30.16R WCI  27
ROGERS CITY    CLOUDY    34  33  96 CALM        N/A
TRAVERSE CITY  LGT RAIN  36  34  92 N10       30.13R FOG     WCI  28
$$
MIZ007>008-015-250300-
EASTERN UPPER MICHIGAN

CITY           SKY/WX    TMP DP  RH WIND       PRES   REMARKS
KINROSS        CLOUDY    33  32  96 N5        30.18R WCI  29
MACKINAC ISLAN CLOUDY    33  33 100 N5        30.17R FOG     WCI  28
NEWBERRY       CLOUDY    32  32  99 N5        30.17R WCI  28
S. S. MARIE    CLOUDY    38  31  76 NE5       30.18R WCI  34
MUNISING         N/A     34  33  96 NE9       30.19S WCI  27
$$
MIZ004>006-011>014-085-250300-
CENTRAL UPPER MICHIGAN

CITY           SKY/WX    TMP DP  RH WIND       PRES   REMARKS
MANISTIQUE     CLOUDY    32  32 100 N6        30.17S WCI  26
ESCANABA       CLOUDY    35  32  88 N7        30.19R WCI  29
MENOMINEE        N/A    N/A N/A N/A MISG        N/A
SAWYER-GWINN   CLOUDY    32  32 100 N9        30.17F FOG     WCI  24
$$
MIZ001>003-009>011-084-250300-
WESTERN UPPER MICHIGAN

CITY           SKY/WX    TMP DP  RH WIND       PRES   REMARKS
IRON MOUNTAIN  CLOUDY    35  29  78 N10       30.17R WCI  27
HOUGHTON       CLOUDY    34  27  75 NE9       30.22R WCI  27
COPPER HARBOR    N/A     34  30  85 E5        30.25S WCI  30
IRONWOOD       CLOUDY    34  31  88 NE5       30.22R WCI  30
$$

ABBREVIATIONS USED IN REMARKS
   TC - TEMPERATURE IN CELSIUS
  WCI - WIND CHILL INDEX
   HX - HEAT INDEX
  VSB - VISIBILITY





USA.gov is the U.S. government's official web portal to all federal, state and local government web resources and services.